When you browse on this site, cookies collect data to enhance your experience and personalize the content and advertising you see.
Visit our Privacy Policy to learn more. By continuing to use the site, you agree to this use of cookies and data.
  • In Austria
  • List of Countries
  • For 7 days
  • Water Temperature
  • Weather Map
  • News
  • Weather Widgets
  • user-avatar
    Login

    Hourly Weather Summit

    Today, 23 September, Monday

    Time Temperature Precipitation Wind Pressure Humidity
    00:00 +25°C° 0 mm 3 mps 754 mmHg 76%
    01:00 +24°C° 0 mm 3 mps 754 mmHg 78%
    02:00 +24°C° 0 mm 3 mps 754 mmHg 79%
    03:00 +24°C° 0 mm 3 mps 753 mmHg 80%
    04:00 +24°C° 0 mm 2 mps 753 mmHg 81%
    05:00 +24°C° 0 mm 3 mps 753 mmHg 80%
    06:00 +24°C° 0 mm 3 mps 753 mmHg 80%
    07:00 +24°C° 0 mm 3 mps 753 mmHg 80%
    08:00 +26°C° 0 mm 3 mps 753 mmHg 73%
    09:00 +27°C° 0 mm 3 mps 752 mmHg 67%
    10:00 +29°C° 0 mm 4 mps 752 mmHg 60%
    11:00 +30°C° 0 mm 4 mps 752 mmHg 54%
    12:00 +33°C° 0 mm 4 mps 751 mmHg 48%
    13:00 +34°C° 0 mm 5 mps 751 mmHg 43%
    14:00 +33°C° 0 mm 5 mps 750 mmHg 45%
    15:00 +33°C° 0 mm 5 mps 750 mmHg 47%
    16:00 +32°C° 0 mm 5 mps 749 mmHg 49%
    17:00 +30°C° 0.1 mm 5 mps 749 mmHg 55%
    18:00 +29°C° 0.1 mm 5 mps 749 mmHg 61%
    19:00 +27°C° 0.1 mm 5 mps 749 mmHg 67%
    20:00 +26°C° 0.5 mm 5 mps 749 mmHg 71%
    21:00 +26°C° 0.5 mm 4 mps 749 mmHg 74%
    22:00 +25°C° 0.5 mm 4 mps 749 mmHg 77%
    23:00 +23°C° 0.1 mm 4 mps 749 mmHg 75%

    Tomorrow, 24 September, Tuesday

    Time Temperature Precipitation Wind Pressure Humidity
    00:00 +22°C° 0.1 mm 4 mps 749 mmHg 74%
    01:00 +21°C° 0.1 mm 4 mps 749 mmHg 72%
    02:00 +20°C° 0 mm 3 mps 749 mmHg 73%
    03:00 +20°C° 0 mm 3 mps 749 mmHg 74%
    04:00 +19°C° 0 mm 3 mps 749 mmHg 75%
    05:00 +18°C° 0 mm 3 mps 749 mmHg 74%
    06:00 +18°C° 0 mm 3 mps 750 mmHg 73%
    07:00 +18°C° 0 mm 3 mps 750 mmHg 72%
    08:00 +19°C° 0 mm 4 mps 750 mmHg 68%
    09:00 +20°C° 0 mm 4 mps 750 mmHg 63%
    10:00 +22°C° 0 mm 4 mps 750 mmHg 58%
    11:00 +22°C° 0 mm 4 mps 750 mmHg 55%
    12:00 +23°C° 0 mm 4 mps 749 mmHg 52%
    13:00 +23°C° 0 mm 4 mps 749 mmHg 49%
    14:00 +23°C° 0 mm 5 mps 749 mmHg 49%
    15:00 +23°C° 0 mm 5 mps 749 mmHg 49%
    16:00 +22°C° 0 mm 5 mps 749 mmHg 50%
    17:00 +21°C° 0 mm 5 mps 749 mmHg 54%
    18:00 +20°C° 0 mm 4 mps 750 mmHg 57%
    19:00 +19°C° 0 mm 4 mps 750 mmHg 61%
    20:00 +19°C° 0 mm 4 mps 751 mmHg 61%
    21:00 +18°C° 0 mm 4 mps 751 mmHg 60%
    22:00 +17°C° 0 mm 3 mps 751 mmHg 60%
    23:00 +17°C° 0 mm 3 mps 751 mmHg 61%

    Day after tomorrow, 25 September, Wednesday

    Time Temperature Precipitation Wind Pressure Humidity
    00:00 +16°C° 0 mm 3 mps 751 mmHg 62%
    01:00 +16°C° 0 mm 3 mps 751 mmHg 64%
    02:00 +16°C° 0 mm 3 mps 751 mmHg 64%
    03:00 +14°C° 0 mm 3 mps 751 mmHg 64%
    04:00 +14°C° 0 mm 3 mps 751 mmHg 64%
    05:00 +16°C° 0 mm 3 mps 751 mmHg 64%
    06:00 +16°C° 0 mm 3 mps 752 mmHg 63%
    07:00 +16°C° 0 mm 3 mps 752 mmHg 62%
    08:00 +18°C° 0 mm 2 mps 752 mmHg 57%
    09:00 +20°C° 0 mm 2 mps 752 mmHg 52%
    10:00 +23°C° 0 mm 2 mps 752 mmHg 48%
    11:00 +24°C° 0 mm 2 mps 751 mmHg 44%
    12:00 +25°C° 0 mm 2 mps 751 mmHg 40%
    13:00 +26°C° 0 mm 2 mps 751 mmHg 36%
    14:00 +26°C° 0 mm 3 mps 750 mmHg 38%
    15:00 +26°C° 0 mm 3 mps 750 mmHg 40%
    16:00 +26°C° 0 mm 3 mps 750 mmHg 42%
    17:00 +25°C° 0 mm 3 mps 750 mmHg 48%
    18:00 +22°C° 0 mm 3 mps 750 mmHg 54%
    19:00 +21°C° 0 mm 3 mps 751 mmHg 60%
    20:00 +20°C° 0 mm 2 mps 751 mmHg 61%
    21:00 +20°C° 0 mm 2 mps 750 mmHg 62%
    22:00 +19°C° 0 mm 2 mps 750 mmHg 63%
    23:00 +19°C° 0 mm 2 mps 750 mmHg 64%

    26 September, Thursday

    Time Temperature Precipitation Wind Pressure Humidity
    00:00 +19°C° 0 mm 2 mps 750 mmHg 65%
    01:00 +18°C° 0 mm 2 mps 750 mmHg 66%
    02:00 +18°C° 0 mm 2 mps 750 mmHg 69%
    03:00 +18°C° 0 mm 2 mps 750 mmHg 71%
    04:00 +18°C° 0 mm 2 mps 749 mmHg 74%
    05:00 +18°C° 0 mm 2 mps 749 mmHg 75%
    06:00 +18°C° 0 mm 2 mps 749 mmHg 76%
    07:00 +18°C° 0 mm 2 mps 749 mmHg 77%
    08:00 +20°C° 0 mm 2 mps 750 mmHg 70%
    09:00 +24°C° 0 mm 3 mps 750 mmHg 62%
    10:00 +26°C° 0 mm 3 mps 750 mmHg 54%
    11:00 +27°C° 0 mm 4 mps 750 mmHg 52%
    12:00 +28°C° 0 mm 4 mps 749 mmHg 49%
    13:00 +29°C° 0 mm 4 mps 749 mmHg 47%
    14:00 +28°C° 0 mm 5 mps 749 mmHg 48%
    15:00 +27°C° 0 mm 5 mps 749 mmHg 49%
    16:00 +26°C° 0 mm 5 mps 749 mmHg 50%
    17:00 +25°C° 0 mm 4 mps 750 mmHg 50%
    18:00 +23°C° 0 mm 4 mps 751 mmHg 50%
    19:00 +21°C° 0 mm 4 mps 751 mmHg 50%
    20:00 +20°C° 0 mm 4 mps 752 mmHg 50%
    21:00 +19°C° 0 mm 3 mps 753 mmHg 51%
    22:00 +18°C° 0 mm 3 mps 754 mmHg 52%
    23:00 +18°C° 0 mm 3 mps 754 mmHg 52%

    27 September, Friday

    Time Temperature Precipitation Wind Pressure Humidity
    00:00 +17°C° 0 mm 3 mps 754 mmHg 52%
    01:00 +16°C° 0 mm 3 mps 755 mmHg 52%
    02:00 +16°C° 0 mm 2 mps 755 mmHg 54%
    03:00 +15°C° 0 mm 2 mps 755 mmHg 56%
    04:00 +15°C° 0 mm 2 mps 756 mmHg 59%
    05:00 +15°C° 0 mm 1 mps 756 mmHg 58%
    06:00 +15°C° 0 mm 1 mps 757 mmHg 58%
    07:00 +16°C° 0 mm 1 mps 757 mmHg 57%
    08:00 +19°C° 0 mm 1 mps 757 mmHg 50%
    09:00 +21°C° 0 mm 1 mps 757 mmHg 44%
    10:00 +23°C° 0 mm 1 mps 757 mmHg 37%
    11:00 +24°C° 0 mm 2 mps 757 mmHg 35%
    12:00 +24°C° 0 mm 2 mps 757 mmHg 33%
    13:00 +25°C° 0 mm 3 mps 756 mmHg 32%
    14:00 +25°C° 0 mm 3 mps 756 mmHg 34%
    15:00 +25°C° 0 mm 3 mps 756 mmHg 36%
    16:00 +25°C° 0 mm 3 mps 755 mmHg 38%
    17:00 +24°C° 0 mm 3 mps 756 mmHg 41%
    18:00 +22°C° 0 mm 4 mps 756 mmHg 45%
    19:00 +21°C° 0 mm 4 mps 756 mmHg 49%
    20:00 +20°C° 0 mm 4 mps 756 mmHg 53%
    21:00 +20°C° 0 mm 4 mps 755 mmHg 57%
    22:00 +19°C° 0 mm 4 mps 755 mmHg 61%
    23:00 +19°C° 0 mm 4 mps 755 mmHg 67%

    28 September, Saturday

    Time Temperature Precipitation Wind Pressure Humidity
    00:00 +19°C° 0 mm 4 mps 755 mmHg 72%
    01:00 +19°C° 0 mm 3 mps 754 mmHg 78%
    02:00 +19°C° 0.2 mm 3 mps 754 mmHg 81%
    03:00 +19°C° 0.2 mm 3 mps 754 mmHg 84%
    04:00 +20°C° 0.2 mm 3 mps 754 mmHg 87%
    05:00 +20°C° 0.3 mm 3 mps 754 mmHg 88%
    06:00 +21°C° 0.3 mm 3 mps 754 mmHg 88%
    07:00 +21°C° 0.3 mm 3 mps 754 mmHg 89%
    08:00 +24°C° 0 mm 3 mps 754 mmHg 83%
    09:00 +25°C° 0 mm 4 mps 754 mmHg 77%
    10:00 +27°C° 0 mm 4 mps 754 mmHg 71%
    11:00 +28°C° 0 mm 4 mps 754 mmHg 65%
    12:00 +30°C° 0 mm 4 mps 754 mmHg 59%
    13:00 +32°C° 0 mm 4 mps 754 mmHg 53%
    14:00 +30°C° 0 mm 4 mps 755 mmHg 56%
    15:00 +29°C° 0 mm 4 mps 755 mmHg 58%
    16:00 +28°C° 0 mm 4 mps 755 mmHg 61%
    17:00 +26°C° 0.3 mm 4 mps 755 mmHg 61%
    18:00 +23°C° 0.3 mm 4 mps 756 mmHg 61%
    19:00 +21°C° 0.3 mm 4 mps 757 mmHg 60%
    20:00 +20°C° 0 mm 4 mps 757 mmHg 56%
    21:00 +20°C° 0 mm 3 mps 758 mmHg 52%
    22:00 +19°C° 0 mm 3 mps 758 mmHg 48%
    23:00 +19°C° 0 mm 3 mps 758 mmHg 49%
    Show more